DELTA 1 DEB, 10836

Orbit data source: Space-Track

DELTA 1 DEB, 10836 is space debris in SSO originally from a launch on Thu, 29 Jul 1976 UTC launched from the Air Force Western Test Range (AFWTR). Debris objects in space refer to the collection of defunct objects orbiting the Earth. Examples of debris include non-operational satellites, rocket bodies, and fragments generated from explosions, collisions, or faulty payload assembly.

Loading next visibility...
Identifier
10836, 1976-077CG
Orbit
SSO
Country
Flag of USUS
Related business
Manufacturer
Unknown
Mission
Spacecraft
Bus & Motor
Unknown
Mass
Unknown
Launch date (UTC)
1976-07-29 (50 years ago)
Launch vehicle
Unknown
Launch site
Air Force Western Test Range (AFWTR)
Object type
Payload
Rocket body
Debris
Shape & HBR
Unknown shape, 0.1 m
Radar Cross Section
Medium (>0.1 m² and <1 m²)

Expand to show TLE details & history
Last TLE update: 21 hours ago

TLE from 21 hours ago
0 DELTA 1 DEB
1 10836U 76077CG  26255.24698752 -.00000080  00000-0 -40322-3 0  9992
2 10836 102.1084   3.6129 0181565 252.3564 134.5664 12.07718695564134
Epoch: 2026-09-12T05:55Z
TLE epoch observation values (Epoch: 2026-09-12T05:55:39.721Z)
Latitude
27.73364°
Longitude
-83.0069°
Altitude
1,753.112 km
Speed
6.96 km/s
True Right ascension
23h 48m 40s
True Declination
27° 36' 34"
Sunlit
Object was in full shadow at epoch
Visualization orbit readout
Latitude
Unknown
Longitude
Unknown
Altitude
Unknown
Speed
Unknown
Apparent Right ascension
Unknown
Apparent Declination
Unknown
Sunlit
N/A
Visualization observer readout
Local Sidereal Time
19:40:01
Azimuth
Unknown
Elevation
Unknown
Doppler factor
Unknown
Orbital elements
Apogee altitude
1,789.764 km
Perigee altitude
1,498.453 km
Semi-major axis
8,022.246 km
Eccentricity
0.01816
Inclination
102.1084°
RAAN
3.6129°
Arg. of periapsis
252.3564°
True anomaly
136.02528°
Mean anomaly
134.5664°
Eccentric anomaly
135.29816°
Mean motion
3.02064 °/min
Orbital period
119.18 mins
BSTAR
-0.00040322
Loading maneuver chart data...
Computing Atmospheric mass density...
Loading historical data...
Loading historical data...
Loading historical data...
Loading historical data...
Loading historical data...
Loading historical data...
Loading historical data...

Documentation

Showing up to 5 results
|